This demonstration page uses our WeatherBlox Daily Observations layout. Learn more.

Left ArrowRight Arrow

Hourly Observations for October 28, 2018

Temp ( °F °C ) Dew Point ( °F °C ) Humidity (%) Winds ( mph kmh ) Pressure ( in mb ) Visibility ( mi km ) Precip ( " mm )
12:57 am 00:57 Partly Cloudy 54 12.2 42 5.6 64 64 N 16 26 30.01 1016 10 16 0.00 0.00
1:57 am 01:57 Mostly Clear 51 10.6 39 3.9 64 64 N 21 33 30.03 1017 10 16 0.00 0.00
2:57 am 02:57 Clear 48 8.9 37 2.8 66 66 N 14 22 30.07 1018 10 16 0.00 0.00
3:57 am 03:57 Clear 44 6.7 35 1.7 71 71 NW 6 9 30.09 1019 10 16 0.00 0.00
4:57 am 04:57 Clear 40 4.4 33 0.6 77 77 NW 8 13 30.11 1020 10 16 0.00 0.00
5:57 am 05:57 Clear 41 5 33 0.6 73 73 NW 9 15 30.12 1020 10 16 0.00 0.00
6:57 am 06:57 Clear 38 3.3 32 0 79 79 WNW 7 11 30.14 1021 10 16 0.00 0.00
7:57 am 07:57 Clear 37 2.8 31 -0.6 79 79 NW 9 15 30.16 1021 10 16 0.00 0.00
8:57 am 08:57 Sunny 38 3.3 32 0 79 79 WNW 10 17 30.17 1022 10 16 0.00 0.00
9:57 am 09:57 Mostly Sunny 46 7.8 34 1.1 63 63 WNW 10 17 30.18 1022 10 16 0.00 0.00
10:57 am 10:57 Sunny 54 12.2 35 1.7 49 49 WNW 8 13 30.18 1022 10 16 0.00 0.00
11:57 am 11:57 Sunny 58 14.4 37 2.8 46 46 W 9 15 30.17 1022 10 16 0.00 0.00
12:57 pm 12:57 Sunny 62 16.7 32 0 32 32 W 10 17 30.14 1021 10 16 0.00 0.00
1:57 pm 13:57 Sunny 65 18.3 30 -1.1 27 27 W 9 15 30.11 1020 10 16 0.00 0.00
2:57 pm 14:57 Sunny 66 18.9 29 -1.7 25 25 W 10 17 30.09 1019 10 16 0.00 0.00
3:57 pm 15:57 Sunny 67 19.4 29 -1.7 24 24 W 7 11 30.08 1019 10 16 0.00 0.00
4:57 pm 16:57 Sunny 67 19.4 28 -2.2 23 23 WNW 8 13 30.08 1019 10 16 0.00 0.00
5:57 pm 17:57 Sunny 64 17.8 33 0.6 32 32 SSW 9 15 30.07 1018 10 16 0.00 0.00
6:57 pm 18:57 Clear 58 14.4 33 0.6 39 39 SSW 9 15 30.08 1019 10 16 0.00 0.00
7:57 pm 19:57 Clear 53 11.7 33 0.6 47 47 SSW 8 13 30.09 1019 10 16 0.00 0.00
8:57 pm 20:57 Clear 50 10 33 0.6 52 52 SSW 10 17 30.10 1019 10 16 0.00 0.00
9:57 pm 21:57 Clear 49 9.4 33 0.6 55 55 S 7 11 30.08 1019 10 16 0.00 0.00
10:57 pm 22:57 Clear 48 8.9 34 1.1 58 58 SSW 8 13 30.07 1018 10 16 0.00 0.00
11:57 pm 23:57 Clear 48 8.9 33 0.6 56 56 SSW 9 15 30.06 1018 10 16 0.00 0.00

Powered by AerisWeather